STARLINK-5000 (53935 NORAD) Tracking and Keplerian Element Data

This shows tracking and keplerian element data for the satellite.

Feedback or suggestion? Click here.




ElementValue
Catalog53935
NameSTARLINK-5000
Epoch Orbit130
Epoch Day324.91667824
Epoch Year2022
RAAN331.1222
Inclination53.2144
Eccentricity0.000402
Argument of Perigee358.6126
Mean Anonmoly28.708
Mean Motion15.73160036
Decay Rate-0.00014054
L11 53935U 22119BB 22324.91667824 -.00014054 00000+0 -95968-4 0 9992
L22 53935 53.2144 331.1222 0004020 358.6126 28.7080 15.73160036 1308



Live tracking and technical data element details for STARLINK-5000 (NORAD 53935). STARLINK-5000 can be tracked NOW for your location showing map with azimuth and elevation plus other details from your city location.







IsCatalogInMostPopularTable: catalog: 53935, numindb: 1
Update: records affected: 1



GetName: 53935 STARLINK-5000

Hit Count: updated at: Mon, 28 Nov 2022 21:37:30 GMT